Regional Weather Roundup
Issued by NWS Little Rock, AR

Home | Current Version | Previous Version | Graphics & Text | Print | Product List | Glossary On
Versions: 1 2 3 4 5 6 7 8 9 10 11 12 13 14 15 16 17 18 19 20 21 22 23 24 25 26 27 28 29 30 31 32 33 34 35 36 37 38 39 40 41 42 43 44 45 46
000
ASUS44 KLZK 270005
RWRLZK

WEATHER ROUNDUP FOR ARKANSAS
NATIONAL WEATHER SERVICE LITTLE ROCK AR
600 PM CST FRI DEC 26 2014

NOTE: "FAIR" INDICATES FEW OR NO CLOUDS BELOW 12,000 FEET WITH NO
SIGNIFICANT WEATHER AND/OR OBSTRUCTIONS TO VISIBILITY.

ARZ001-003-010-029-270100-
NORTHWEST ARKANSAS

CITY           SKY/WX    TMP DP  RH WIND       PRES   REMARKS
FAYETTEVILLE   LGT RAIN  50  49  96 S10       29.96R
6HR MIN TEMP:  50; 6HR MAX TEMP:  53; 6HR PCP: TRACE;

FORT SMITH     CLOUDY    51  49  92 E7        29.99R
6HR MIN TEMP:  50; 6HR MAX TEMP:  56; 6HR PCP:  0.01;

HARRISON       CLOUDY    48  48 100 SE16      29.99S FOG
6HR MIN TEMP:  48; 6HR MAX TEMP:  52;

BENTONVILLE    CLOUDY    54  48  82 S7        29.96R
6HR MIN TEMP:  52; 6HR MAX TEMP:  55; 6HR PCP:  0.03;

ROGERS         CLOUDY    51  49  92 S10       29.96R
6HR MIN TEMP:  51; 6HR MAX TEMP:  56; 6HR PCP:  0.04;

SILOAM SPGS    CLOUDY    52  45  76 SE9       29.97R
6HR MIN TEMP:  52; 6HR MAX TEMP:  55; 6HR PCP:  0.02;

HIGHFILL       CLOUDY    51  50  96 S9        29.95R
6HR MIN TEMP:  51; 6HR MAX TEMP:  55; 6HR PCP:  0.04;

SPRINGDALE     CLOUDY    54  50  87 S14       29.98R
$$

ARZ004-005-016-270100-
NORTH CENTRAL ARKANSAS

CITY           SKY/WX    TMP DP  RH WIND       PRES   REMARKS
BATESVILLE     CLOUDY    54  39  58 SE7       30.07S
6HR MIN TEMP:  48; 6HR MAX TEMP:  54;

FLIPPIN        CLOUDY    52  41  66 SE3       30.02S
6HR MIN TEMP:  52; 6HR MAX TEMP:  54;

MTN HOME       CLOUDY    50  43  77 SE6       30.01S
6HR MIN TEMP:  50; 6HR MAX TEMP:  53;

$$

ARZ040-041-270100-
WEST CENTRAL ARKANSAS

CITY           SKY/WX    TMP DP  RH WIND       PRES   REMARKS
MENA           CLOUDY    55  54  94 SE6       29.99S
MOUNT IDA      CLOUDY    52  50  93 VRB5G17   29.99R FOG
6HR MIN TEMP:  50; 6HR MAX TEMP:  52; 6HR PCP:  0.11;

$$

ARZ009-017-025-026-028-270100-
NORTHEAST ARKANSAS

CITY           SKY/WX    TMP DP  RH WIND       PRES   REMARKS
CORNING        CLOUDY    52  41  66 SE9       30.09F
JONESBORO      CLOUDY    51  40  65 S10       30.10F
6HR MIN TEMP:  51; 6HR MAX TEMP:  55;

NEWPORT        CLOUDY    51  41  69 SE12      30.09F
6HR MIN TEMP:  49; 6HR MAX TEMP:  55;

WALNUT RIDGE   MOCLDY    50  37  62 S6        30.08S
6HR MIN TEMP:  48; 6HR MAX TEMP:  55;

BLYTHEVILLE    MOCLDY    49  40  71 S8        30.13S
6HR MIN TEMP:  49; 6HR MAX TEMP:  57;

$$

ARZ022-023-033-042-044-270100-
CENTRAL ARKANSAS

CITY           SKY/WX    TMP DP  RH WIND       PRES   REMARKS
LITTLE ROCK    LGT RAIN  53  47  79 SE9       30.08R
6HR MIN TEMP:  52; 6HR MAX TEMP:  55; 6HR PCP:  0.03;

N LITTLE ROCK  CLOUDY    52  50  93 SE10G17   30.08R
6HR MIN TEMP:  50; 6HR MAX TEMP:  53;

JACKSONVILLE   LGT RAIN  52  49  90 S3        30.07R
6HR MIN TEMP:  51; 6HR MAX TEMP:  55; 6HR PCP:  0.02;

SEARCY         CLOUDY    53  46  77 SE5       30.09S
6HR MIN TEMP:  52; 6HR MAX TEMP:  57; 6HR PCP: TRACE;

HOT SPRINGS    CLOUDY    52  50  93 E8        30.04S
6HR MIN TEMP:  48; 6HR MAX TEMP:  52; 6HR PCP:  0.13;

RUSSELLVILLE   LGT RAIN  50  48  93 E6        30.02S FOG
6HR MIN TEMP:  50; 6HR MAX TEMP:  51; 6HR PCP:  0.04;

CLINTON        CLOUDY    46  46 100 CALM      30.08R FOG
$$

ARZ036-270100-
EAST ARKANSAS

CITY           SKY/WX    TMP DP  RH WIND       PRES   REMARKS
WEST MEMPHIS   PTCLDY    49  43  80 SE13      30.12S
6HR MIN TEMP:  48; 6HR MAX TEMP:  56;

$$

ARZ050-053-066-070-073-270100-
SOUTHWEST ARKANSAS

CITY           SKY/WX    TMP DP  RH WIND       PRES   REMARKS
ARKADELPHIA    LGT RAIN  52  52 100 SE3       30.06R FOG
6HR MIN TEMP:  50; 6HR MAX TEMP:  53; 6HR PCP:  0.02;

CAMDEN         LGT RAIN  52  48  87 MISG      30.06S
TEXARKANA      CLOUDY    54  54 100 SE8       30.01R
6HR MIN TEMP:  54; 6HR MAX TEMP:  57; 6HR PCP:  0.07;

EL DORADO      LGT RAIN  53  52  96 SE7       30.06S
6HR MIN TEMP:  52; 6HR MAX TEMP:  54; 6HR PCP: TRACE;

DE QUEEN       CLOUDY    55  53  93 VRB7      29.99R
6HR MIN TEMP:  50; 6HR MAX TEMP:  55; 6HR PCP:  0.01;

$$

ARZ056-057-069-270100-
SOUTHEAST ARKANSAS

CITY           SKY/WX    TMP DP  RH WIND       PRES   REMARKS
PINE BLUFF     CLOUDY    54  47  77 SE13G22   30.09S
6HR MIN TEMP:  52; 6HR MAX TEMP:  56;

STUTTGART      CLOUDY    54  46  76 SE12      30.09S
6HR MIN TEMP:  52; 6HR MAX TEMP:  55;

MONTICELLO     CLOUDY    52  49  89 SE8       30.10S
6HR MIN TEMP:  52; 6HR MAX TEMP:  55; 6HR PCP:  0.08;


$$





USA.gov is the U.S. government's official web portal to all federal, state and local government web resources and services.